K4MDI Weather Reports


time (UTC)temp
C
wind
direction
speed
KPH
gust
KPH
rain 1hr
cm
rain 24hr
cm
rain mn
cm
humidity
%
barometer
mb
20260505005539 17 0.0 0.0 0.00 0.00 0.00 66 1013.7
20260505004519 18 0.0 0.0 0.00 0.00 0.00 64 1013.6
20260505003539 18 0.0 0.0 0.00 0.00 0.00 65 1013.5
20260505002519 18 0.0 0.0 0.00 0.00 0.00 65 1013.6
20260505001539 19 0.0 0.0 0.00 0.00 0.00 67 1013.5
20260505000519 20 0.0 0.0 0.00 0.00 0.00 64 1013.5
20260504235519 21 0.0 0.0 0.00 0.00 0.00 54 1013.5
20260504234519 21 0.0 0.0 0.00 0.00 0.00 51 1013.3
20260504233519 22 0.0 0.0 0.00 0.00 0.00 52 1013.3
20260504232538 22 0.0 0.0 0.00 0.00 0.00 51 1013.3
20260504231519 23 0.0 0.0 0.00 0.00 0.00 49 1013.3
20260504230519 23 0.0 0.0 0.00 0.00 0.00 48 1013.3
20260504225518 24 0.0 3.2 0.00 0.00 0.00 43 1013.2
20260504224519 24 0.0 0.0 0.00 0.00 0.00 41 1013.3
20260504223519 25 68 1.6 6.4 0.00 0.00 0.00 42 1013.4
20260504222519 24 0.0 1.6 0.00 0.00 0.00 42 1013.4
20260504222104 24 0.0 0.0 0.00 0.00 0.00 41 1013.4
20260504221613 24 113 1.6 6.4 0.00 0.00 0.00 41 1013.4
20260504220519 25 90 1.6 4.8 0.00 0.00 0.00 43 1013.5
20260504215519 25 90 1.6 8.0 0.00 0.00 0.00 40 1013.4
20260504214519 25 0.0 1.6 0.00 0.00 0.00 43 1013.5
20260504213519 24 0.0 3.2 0.00 0.00 0.00 42 1013.5
20260504212518 25 0.0 1.6 0.00 0.00 0.00 42 1013.4
20260504211538 25 0.0 0.0 0.00 0.00 0.00 42 1013.5
20260504210519 25 0.0 1.6 0.00 0.00 0.00 40 1013.6
20260504205519 25 0.0 3.2 0.00 0.00 0.00 38 1013.5
20260504204518 25 113 1.6 4.8 0.00 0.00 0.00 38 1013.7
20260504203519 25 0.0 3.2 0.00 0.00 0.00 36 1013.8
20260504202519 26 113 3.2 8.0 0.00 0.00 0.00 38 1013.9
20260504201539 26 0.0 4.8 0.00 0.00 0.00 35 1013.9
20260504200518 26 90 1.6 4.8 0.00 0.00 0.00 35 1014.0
20260504195519 26 0.0 3.2 0.00 0.00 0.00 35 1014.1
20260504194539 27 0.0 3.2 0.00 0.00 0.00 36 1014.2
20260504193519 26 113 1.6 6.4 0.00 0.00 0.00 35 1014.3
20260504192519 26 0.0 3.2 0.00 0.00 0.00 33 1014.3
20260504191519 26 113 1.6 6.4 0.00 0.00 0.00 35 1014.5
20260504190519 26 0.0 3.2 0.00 0.00 0.00 34 1014.7
20260504185518 26 23 1.6 4.8 0.00 0.00 0.00 35 1014.8
20260504184518 26 90 1.6 8.0 0.00 0.00 0.00 36 1015.1
20260504183518 25 113 1.6 6.4 0.00 0.00 0.00 37 1015.2
20260504182518 25 0.0 3.2 0.00 0.00 0.00 37 1015.2
20260504181518 25 135 1.6 4.8 0.00 0.00 0.00 36 1015.5
20260504180518 25 68 1.6 6.4 0.00 0.00 0.00 37 1015.5
20260504175538 25 338 1.6 6.4 0.00 0.00 0.00 37 1015.7
20260504174518 25 113 1.6 4.8 0.00 0.00 0.00 39 1015.9
20260504173518 24 315 1.6 11.3 0.00 0.00 0.00 40 1016.0
20260504172558 24 90 1.6 8.0 0.00 0.00 0.00 38 1016.0
20260504171518 25 90 1.6 6.4 0.00 0.00 0.00 39 1016.1
20260504170538 24 293 1.6 4.8 0.00 0.00 0.00 40 1016.1
20260504150518 21 90 1.6 3.2 0.00 0.00 0.00 48 1017.3
20260504140520 17 0.0 8.0 0.00 0.00 0.00 62 1017.4
20260504130520 11 0.0 0.0 0.00 0.00 0.00 83 1017.3
20260504110519 4 0.0 0.0 0.00 0.00 0.00 94 1017.1
20260504100520 5 0.0 0.0 0.00 0.00 0.00 93 1016.6
20260504081020 7 0.0 0.0 0.00 0.00 0.00 79 1016.6
20260504050119 10 0.0 0.0 0.00 0.00 0.00 74 1017.1
20260504045019 10 0.0 0.0 0.00 0.00 0.00 72 1016.9
20260504044019 10 0.0 0.0 0.00 0.00 0.00 72 1016.7
20260504043039 10 0.0 0.0 0.00 0.00 0.00 72 1016.7
20260504042019 10 0.0 0.0 0.00 0.00 0.00 71 1016.8
20260504041019 10 0.0 0.0 0.00 0.00 0.00 71 1016.9
20260504040019 10 0.0 0.0 0.00 0.00 0.03 71 1016.9
20260504035039 10 0.0 0.0 0.00 0.00 0.03 70 1016.9
20260504034039 11 0.0 0.0 0.00 0.00 0.03 68 1016.9
20260504033039 11 0.0 0.0 0.00 0.00 0.03 69 1016.8
20260504032019 11 0.0 0.0 0.00 0.00 0.03 69 1016.7
20260504031019 11 0.0 1.6 0.00 0.00 0.03 69 1016.8
20260504030019 11 0.0 0.0 0.00 0.00 0.03 68 1016.7
20260504025019 12 0.0 1.6 0.00 0.00 0.03 67 1016.7
20260504024019 11 0.0 1.6 0.00 0.00 0.03 69 1016.6
20260504023019 11 0.0 1.6 0.00 0.00 0.03 71 1016.5
20260504022019 12 0.0 0.0 0.00 0.00 0.03 71 1016.5
20260504021039 11 0.0 1.6 0.00 0.00 0.03 74 1016.4
20260504020019 11 0.0 0.0 0.00 0.00 0.03 72 1016.1
20260504015019 11 0.0 0.0 0.00 0.00 0.03 70 1015.9
20260504014019 12 0.0 0.0 0.00 0.00 0.03 68 1015.8
20260504013018 12 0.0 0.0 0.00 0.00 0.03 67 1015.4
20260504012019 12 0.0 0.0 0.00 0.00 0.03 65 1015.4
20260504011019 12 0.0 0.0 0.00 0.00 0.03 63 1015.3